Location: Palomar Mountain Lodge
(33.3110°N, 116.8495°W)
Time: 16:42:56
(UTC-07:00)

Daily predictions for brighter satellites

Satellite Brightness Start Highest point End
(mag) Time Altitude Azimuth Time Altitude Azimuth Time Altitude Azimuth
H-2A R/B 4.1 19:36:53 10° W 19:42:26 65° S 20:26:54 13° ESE
H-2A R/B 4.1 19:36:53 10° W 19:42:26 65° S 20:26:57 13° ESE
H-2A R/B 4.1 19:36:53 10° W 19:42:26 65° S 20:26:51 13° ESE
H-2A R/B 4.1 19:36:53 10° W 19:42:27 65° S 20:26:53 13° ESE
H-2A R/B 4.1 19:36:53 10° W 19:42:27 65° S 20:26:52 13° ESE
H-2A R/B 4.1 19:36:52 10° W 19:42:27 65° S 20:26:54 13° ESE
GPS 2-04 Rocket1 2.6 19:51:29 10° W 19:55:01 65° SSW 19:58:42 10° ESE
FREGAT/IRIS 4.1 19:57:51 10° S 20:00:42 40° W 20:03:34 10° NNW
OAO 3 Rocket 3.2 19:56:35 10° WSW 20:01:28 81° SSE 20:06:24 10° ENE
SEDSat Delta rocket 4.1 19:58:10 10° SW 20:02:58 38° SSE 20:08:26 10° E
Resurs 01 Rocket 1.7 20:01:07 10° SSE 20:05:30 62° ENE 20:09:53 10° N
Cosmos 1331 Rocket 4.5 20:00:45 10° SSW 20:06:00 68° WNW 20:11:18 10° NNE
Helios 1A 4.2 20:03:27 10° SE 20:06:51 25° ENE 20:10:19 10° NNE
Atlas Centaur 2 3.5 20:04:07 10° SW 20:10:11 34° SSE 20:16:54 11° E
HJ-1C 4.0 20:07:50 10° S 20:11:15 61° W 20:14:39 10° NNW
USA 234 4.2 20:07:21 10° E 20:13:08 35° NE 20:18:55 10° NNW
Cosmos 2360 4.2 20:10:31 10° SSW 20:16:14 88° ESE 20:21:59 10° NNE
ATLAS CENTAUR R/B 2.0 20:18:32 10° NW 20:21:21 85° SW 20:28:14 11° SE
Cosmos 1408 4.1 20:21:21 10° NNE 20:24:01 19° ENE 20:24:35 18° E
Cosmos 1455 2.3 20:21:11 10° S 20:24:59 77° W 20:28:46 10° N
Molniya-1 3.8 20:23:30 10° SW 20:24:59 36° NW 20:26:42 10° NNE
Cosmos 1869 3.3 20:25:43 10° S 20:29:33 57° E 20:33:25 10° NNE
Cosmos 1486 Rocket 4.1 20:25:24 10° N 20:30:32 55° ENE 20:34:21 18° SE
OTV 4 0.5 20:30:27 10° WNW 20:33:16 61° SSW 20:34:14 35° SE
IUS-7 SRM-1 4.3 20:33:02 10° WSW 20:35:56 36° S 20:40:16 20° ESE
Cosmos 1992 Rocket 4.4 20:35:15 10° SSE 20:40:03 38° E 20:44:53 10° NE
Cosmos 1400 Rocket 3.9 20:36:59 10° NNW 20:40:42 44° W 20:44:27 10° SSW
USA 186 1.8 20:42:33 25° S 20:43:49 58° W 20:46:32 10° NNW
Cosmos 1892 4.0 20:42:33 10° NNW 20:46:06 39° W 20:49:40 10° SSW
Milstar 3 3.0 20:39:10 10° W 20:47:12 59° S 20:50:57 26° ESE
Gblst 52 Del rocket 4.1 20:44:06 10° NW 20:49:52 84° SW 20:52:46 29° SE
Cosmos 1933 4.0 20:50:28 33° E 20:50:28 33° E 20:54:00 10° NNE
Cosmos 2026 Rocket 4.0 20:44:33 10° N 20:50:40 58° E 20:54:29 23° SSE
Cosmos 1315 Rocket 3.1 20:49:14 10° NNW 20:53:16 66° W 20:56:10 18° S
YAOGAN 6 3.7 20:54:41 28° ENE 20:54:41 28° ENE 20:57:29 10° NNE
DELTA 2 R/B (1) 3.5 20:51:30 10° WNW 20:57:08 85° SSW 20:59:32 36° ESE
Cosmos 1503 Rocket 4.2 20:56:34 10° N 21:01:42 53° ENE 21:03:11 40° ESE
CZ-3B DEB 2.3 20:59:10 10° WNW 21:01:47 21° WSW 21:02:12 20° SW
Cosmos 1634 Rocket 4.4 20:57:45 10° SSW 21:03:57 63° W 21:10:14 10° N
H-2A R/B 4.1 21:04:41 11° ENE 21:04:41 11° ENE 21:05:35 10° NE
Cosmos 2322 Rocket 2.2 20:58:50 10° SSW 21:04:25 82° WNW 21:10:03 10° NNE
Cosmos 1354 Rocket 4.1 20:59:54 10° N 21:05:06 58° ENE 21:06:35 42° SE
Cosmos 2263 Rocket 3.1 21:00:25 10° N 21:05:16 30° ENE 21:06:05 29° ENE
Meteor 1-29 4.2 21:06:40 10° N 21:09:59 42° WNW 21:13:14 10° SSW
Cosmos 1733 Rocket 3.1 21:06:54 10° N 21:11:16 58° E 21:11:35 57° E
Cosmos 1862 Rocket 3.4 21:11:07 46° S 21:12:22 76° E 21:16:50 10° N
Meteor 2-10 Rocket 4.0 21:11:52 42° ESE 21:12:49 46° E 21:18:21 10° NNE
Cosmos 1655 Rocket 3.9 21:06:31 10° N 21:12:54 72° E 21:15:50 34° SSE
Helios 1B rocket 4.0 21:09:20 10° N 21:13:05 36° WNW 21:16:49 10° SW
Cosmos 2360 Rocket 2.5 21:15:52 43° E 21:15:52 43° E 21:20:48 10° NE
Lacrosse 4 Rocket 1.9 21:11:54 10° NNW 21:16:01 47° ENE 21:16:01 47° ENE
GENESIS II 4.4 21:13:01 10° SW 21:17:02 72° WNW 21:21:06 10° NNE
Cosmos 1825 2.2 21:14:15 10° N 21:18:03 76° W 21:18:16 72° SW
Cosmos 1862 3.3 21:16:13 10° N 21:19:52 66° NE 21:19:52 66° NE
CZ-4B DEB 4.0 21:20:41 37° W 21:20:41 37° W 21:23:26 10° NNW
Cosmos 2322 4.4 21:22:29 35° ENE 21:22:29 35° ENE 21:26:23 10° NE
Cosmos 1939 Rocket 3.3 21:21:31 45° SSW 21:22:27 58° W 21:26:26 10° NNW
NOAA 11 4.5 21:24:37 46° E 21:24:55 47° ENE 21:30:09 10° N
Envisat 3.7 21:23:12 24° SSW 21:26:00 51° W 21:30:56 10° NNW
SL-16 R/B 3.1 21:26:05 10° SW 21:31:31 47° WNW 21:36:59 10° N
SPOT 5 3.7 21:34:04 37° NE 21:34:04 37° NE 21:37:38 10° N
Cosmos 2266 Rocket 4.3 21:32:28 10° N 21:38:21 47° ENE 21:38:21 47° ENE
MetOp-B 4.1 21:44:34 69° NE 21:44:34 69° NE 21:49:39 10° N
OAO 3 Rocket 3.4 21:40:14 10° W 21:44:57 70° NNW 21:44:57 70° NNW
ATLAS 5 CENTAUR R/B 3.2 21:41:44 10° NNW 21:47:20 36° NE 21:47:28 36° NE
Meteor 1-26 Rocket 4.1 21:48:41 84° SE 21:48:47 85° E 21:54:33 10° N
SEDSat Delta rocket 3.7 21:43:30 10° WSW 21:48:41 68° SSW 21:48:41 68° SSW
ARGOS 3.4 21:53:21 55° NNE 21:53:21 55° NNE 21:57:51 10° N
Nimbus 7 Rocket 4.4 21:46:53 10° NNE 21:52:10 65° ENE 21:52:10 65° ENE
USA 234 3.4 21:54:42 54° S 21:55:49 62° SW 22:02:19 10° NW
Atlas Centaur 2 2.9 21:51:55 10° WSW 21:59:23 64° SSE 21:59:34 64° SSE
Cosmos 489 Rocket 4.5 21:55:05 10° NNW 22:01:08 69° NE 22:01:08 69° NE
ERS-1 Rocket 3.6 22:02:11 48° WSW 22:02:15 48° W 22:07:05 10° NNW
MOS 1-B Rocket 4.0 22:16:43 73° NNW 22:16:43 73° NNW 22:21:52 10° NNW
SeaSat 1 3.4 22:19:46 44° NNW 22:19:46 44° NNW 22:23:06 10° NNW
USA 229 DEB 4.2 22:39:03 42° WSW 22:40:56 54° NW 22:47:41 10° NNE
USA 229 4.2 22:39:21 45° W 22:41:01 55° NW 22:47:47 10° NNE
Terra 4.0 22:44:39 20° N 22:44:39 20° N 22:46:09 10° N
H-2A R/B 3.7 22:45:19 30° NNW 22:45:19 30° NNW 22:47:49 10° NNW
COSMOS 2428 4.3 22:46:58 28° N 22:46:58 28° N 22:49:33 10° NNE
Cosmos 2263 Rocket 3.8 22:44:18 10° NW 22:47:48 27° W 22:47:48 27° W
Cosmos 2360 Rocket 4.3 22:57:26 18° W 22:59:37 22° WNW 23:03:56 10° N
Cosmos 2333 Rocket 4.5 23:28:48 18° NNE 23:28:48 18° NNE 23:30:16 10° NNE
CZ-4C R/B 4.1 23:25:04 10° NNW 23:30:05 34° NNE 23:30:05 34° NNE
ATLAS 5 CENTAUR R/B 4.3 23:26:25 10° NW 23:29:01 24° WNW 23:29:01 24° WNW
Cosmos 2278 Rocket 4.4 23:36:13 10° N 23:37:59 20° N 23:37:59 20° N
